Regional Weather Roundup
Issued by NWS

Home | Current Version | Previous Version | Text Only | Print | Product List | Glossary On
Versions: 1 2 3 4 5 6 7 8 9 10 11 12 13 14 15 16 17 18 19 20 21 22 23 24 25 26 27 28 29 30 31 32 33 34 35 36 37 38 39 40 41 42 43 44 45 46 47 48 49 50
000
ASUS44 KLIX 211311
RWRLA
LOUISIANA WEATHER ROUNDUP
NATIONAL WEATHER SERVICE NEW ORLEANS LA
800 AM CDT TUE APR 21 2015

NOTE: "FAIR" INDICATES FEW OR NO CLOUDS BELOW 12,000 FEET WITH NO
      SIGNIFICANT WEATHER AND/OR OBSTRUCTIONS TO VISIBILITY.
      SKY/WX - SKY CONDITION AND SIGNIFICANT WEATHER.
      TMP - AIR TEMPERATURE.    DP   - DEWPOINT TEMPERATURE.
      RH  - RELATIVE HUMIDITY.  PRES - PRESSURE.
      HX  - HEAT INDEX.         WCI  - WIND CHILL INDEX.

*  THESE STATIONS ARE NOT NWS OR FAA STATIONS AND ARE NOT UNDER
   NWS QUALITY CONTROL.

LAZ040-048-061>063-065-066-069-211400-
SOUTHEAST LOUISIANA

CITY           SKY/WX    TMP DP  RH WIND       PRES   REMARKS
N.O. AUDUBON     N/A     67  52  58 MISG        N/A
N.O. INTL ARPT PTSUNNY   68  46  45 NE13      30.04R
N.O. LAKEFRONT CLOUDY    69  48  47 NE14      30.05R
SLIDELL        CLOUDY    58  53  84 CALM      30.04R
BATON ROUGE    SUNNY     59  50  72 NE7       30.04R
BOOTHVILLE     CLOUDY    68  54  60 NE8       30.03R
BELLE CHASSE   CLOUDY    64  51  62 NE8       30.03R
BOGALUSA*        N/A     55  50  82 N5        30.06R
GALLIANO*      CLOUDY    67  51  56 CALM      30.04R
NEW ROADS*     FAIR      60  48  64 NE10      30.05R
GONZALES*      FAIR      59  52  78 CALM      30.04S
HAMMOND*       MOSUNNY   57  50  77 CALM      30.06R
HOUMA*         PTSUNNY   63  55  77 N3        30.03R
PORT FOURCHON* SUNNY     68  54  60 NE15      30.06

$$

LAZ041-044-053-054-211400-
SOUTHWEST LOUISIANA

CITY           SKY/WX    TMP DP  RH WIND       PRES   REMARKS
LAKE CHARLES   MOSUNNY   59  49  69 E7        30.03R
LAFAYETTE      MOSUNNY   61  52  72 NE3       30.04R
PATTERSON      CLOUDY    64  52  63 E5        30.05R
SALT POINT       N/A     63  58  83 CALM      30.03R
NEW IBERIA     MOSUNNY   63  50  62 NE6       30.05R
CHENAULT AIRPK SUNNY     57  48  72 NE6       30.03R

$$

LAZ027-028-211400-
CENTRAL LOUISIANA

CITY           SKY/WX    TMP DP  RH WIND       PRES   REMARKS
FORT POLK      MOSUNNY   57  44  59 NE6       30.05R
ALEXANDRIA INT MOSUNNY   57  44  62 NE8       30.04R
ALEXANDRIA     MOSUNNY   59  43  55 VRB3      30.05R

$$

LAZ001-002-211400-
NORTHWEST LOUISIANA

CITY           SKY/WX    TMP DP  RH WIND       PRES   REMARKS
SHREVEPORT     CLOUDY    55  49  80 SE6       30.04R
BARKSDALE AFB  MOSUNNY   53  47  81 S2        30.04R
DTN SHREVEPORT PTSUNNY   54  43  66 E5        30.04R

$$

LAZ014-016-211400-
NORTHEAST LOUISIANA

CITY           SKY/WX    TMP DP  RH WIND       PRES   REMARKS
MONROE         SUNNY     55  47  74 CALM      30.07R
TALLULAH       SUNNY     58  47  66 E3        30.08R

$$




USA.gov is the U.S. government's official web portal to all federal, state and local government web resources and services.